Location: Huisseau
(47.5933°N, 1.4533°E)
Time: 18:10:42
(UTC+00:00)

CENTAUR R/B - Pass Details

Date: 22 November 2025
Orbit: 633 x 1547 km, 63.4° (Epoch: 06 December)

Event Time Altitude Azimuth Distance (km) Brightness Sun altitude
Exits shadow 05:17:30 26° 285° (WNW) 2,513 4.0 -18.5°
Maximum altitude 05:20:59 35° 247° (WSW) 2,236 3.9 -17.9°
Drops below altitude 10° 05:29:07 10° 187° (S) 3,718 5.6 -16.6°
Sets 05:32:31 0° 179° (S) 4,694 6.2 -16.0°
